Location: Mittersill
(44.1801°N, 71.7142°W)
Time: 02:29:10
(UTC+00:00)

NOAA 6 - Pass Details

Date: 10 September 2024
Orbit: 769 x 782 km, 98.6° (Epoch: 04 October)

Event Time Altitude Azimuth Distance (km) Brightness Sun altitude
Rises 23:20:57 0° 171° (S) 3,227 7.0 -3.6°
Reaches altitude 10° 23:23:15 10° 173° (S) 2,305 6.3 -4.0°
Maximum altitude 23:28:19 70° 257° (WSW) 821 4.4 -4.9°
Drops below altitude 10° 23:33:26 10° 342° (NNW) 2,327 6.9 -5.8°
Sets 23:35:46 0° 344° (NNW) 3,260 7.7 -6.2°
